Airfield :
LOGIN :

Register | Disclaimer

   EN    FR    IT 

 










Legend :    VFR   Marginal VFR   IFR   Intensive IFR   Very Intensive IFR
Visi :
Ceiling :
>= 8 km
>= 3000ft
5 to 8 km
1000 to 3000 ft
1500m to 5 km
500 to 1000 ft
800 to 1500m
200 to 500 ft
< 800m
< 200 ft
Symbols :   Thunderstorms  Fog  Heavy snow  Heavy precipitations  Wind > 20 kt
SIGMETs :     Misc.  Thunderstorms  Icing  Turbulence  Mountain Waves  Volcanic Ashes






- Airport Elevation : 16 ft
- IATA code : SDL


ESNN - Sundsvall-Härnösand

CURRENT METAR :
  • 292150Z AUTO 31003KT 9999 BKN057/// 04/03 Q1006

EXPIRED METARs :
  • 292120Z AUTO 30004KT 9999 OVC053/// 04/04 Q1005
  • 292050Z AUTO 33004KT 0300 R16/P2000N R34/1000U FG OVC053/// 05/04 Q1005
  • 292020Z AUTO 32003KT 0350 R16/P2000D R34/1400N FG OVC047/// 05/04 Q1005
  • 291950Z AUTO VRB02KT 0550 R16/P2000N R34/P2000N BR OVC047/// 05/04 Q1005
  • 291920Z AUTO VRB02KT 9000 OVC046/// 05/04 Q1004

Expired Forecast.



MET'MAP, your aeronautical weather chart ! - Copyright ORBIFLY December 2007 - Disclaimer

ORBIFLY MET'MAP TEAM :

Programming & Development : Alexandra Zaïnal
Concept & original design : Baudouin d'Aumeries
Assistance for programming : Marc-Olivier Méhu
Technical & hardware support : Manuel Goepfert

Contact : metmap@orbifly.com




SOURCES & CREDITS :

   NOAA